CAPE
89 35 47 41 59 47 216 309 501 621 641 650 488 789 836 709 817 765 907 685 891 988
290 160 132 57 0 0 0 290 467 535 759 836 527 655 818 886 889 801 835 758 767 836
151 342 304 192 116 12 6 35 409 529 651 868 854 715 888 771 712 735 728 714 715 766
348 325 355 372 306 284 168 104 152 373 482 659 823 835 789 848 795 850 841 670 774 886
710 569 534 419 392 292 322 377 307 299 395 401 482 526 447 571 1184 1021 860 822 618 764
591 693 726 678 562 454 387 352 346 280 204 244 166 139 101 276 494 595 744 750 525 574
0 44 229 451 550 557 450 457 311 107 68 26 0 0 0 122 409 469 643 746 755 826
0 0 0 10 244 480 455 428 398 240 29 4 0 0 0 0 218 589 749 749 800 921
0 0 0 0 0 0 358 543 404 296 227 64 21 9 0 0 31 241 704 817 831 965
0 1 0 0 0 0 10 268 626 526 228 160 106 40 26 0 149 528 824 957 990 962
0 0 0 0 0 0 0 9 185 471 671 721 660 334 214 3 178 561 743 872 971 1038
27 0 1 2 6 8 1 0 0 56 90 348 574 373 259 0 131 410 691 841 907 1044
95 145 148 84 38 141 5 18 56 106 195 190 431 255 13 1 33 244 343 598 419 323
0 0 0 1 1 1 1 72 267 257 190 228 206 87 1 1 3 135 374 563 581 373
CIN
-234 -287 -287 -242 -316 -288 -236 -224 -178 -169 -161 -144 -156 -115 -89 -83 -91 -100 -92 -107 -104 -86
-219 -225 -244 -274 -0 -0 -0 -254 -203 -187 -154 -148 -158 -139 -107 -87 -75 -84 -91 -103 -102 -100
-293 -235 -240 -288 -307 -152 -149 -341 -226 -210 -180 -149 -138 -129 -120 -115 -101 -84 -88 -102 -100 -98
-263 -261 -252 -243 -244 -248 -277 -280 -259 -235 -200 -154 -132 -123 -114 -103 -104 -86 -81 -92 -89 -85
-203 -215 -200 -216 -220 -218 -204 -169 -184 -206 -207 -205 -173 -157 -150 -113 -61 -76 -87 -87 -84 -85
-184 -174 -167 -157 -175 -194 -180 -163 -154 -167 -206 -209 -242 -243 -242 -157 -108 -101 -96 -95 -91 -88
-0 -156 -228 -158 -127 -139 -159 -132 -142 -205 -231 -300 -0 -0 -0 -177 -119 -105 -101 -101 -88 -79
-0 -0 -0 -208 -164 -116 -115 -110 -132 -151 -242 -54 -0 -0 -0 -0 -143 -86 -80 -92 -83 -77
-0 -0 -0 -0 -0 -0 -84 -62 -96 -149 -164 -196 -171 -102 -0 -0 -203 -131 -78 -69 -76 -75
-0 -91 -148 -0 -0 -0 -168 -65 -61 -95 -159 -182 -186 -172 -178 -0 -130 -81 -64 -58 -58 -60
-0 -0 -0 -0 -0 -0 -0 -164 -118 -80 -77 -74 -95 -122 -129 -17 -130 -79 -68 -64 -60 -59
-131 -0 -0 -134 -138 -123 -0 -0 -0 -223 -199 -108 -114 -140 -149 -6 -148 -76 -71 -70 -67 -53
-113 -72 -71 -58 -62 -40 -11 -177 -182 -191 -169 -160 -113 -162 -116 -0 -276 -131 -131 -112 -145 -174
-0 -0 -0 -0 -0 -0 -0 -107 -63 -97 -139 -148 -167 -234 -0 -0 -23 -156 -76 -73 -92 -154
Wind_Speed
8 5 5 6 4 4 4 3 3 4 5 5 5 4 4 3 3 3 3 4 2 1
8 7 6 6 5 5 5 4 5 5 5 5 5 4 4 3 3 3 3 2 2 2
9 8 8 6 6 6 5 5 5 5 5 4 5 5 5 4 4 3 2 2 3 3
8 8 8 8 8 7 5 5 5 6 5 5 5 5 5 5 4 4 4 4 4 5
9 8 8 9 9 8 7 6 7 6 6 6 6 6 6 6 5 6 6 6 4 6
8 8 9 9 9 8 8 8 7 5 6 6 6 6 6 6 5 6 7 6 5 7
5 5 5 5 6 7 8 8 7 7 7 6 5 5 5 6 6 7 7 6 6 7
4 4 5 4 4 5 7 8 9 8 7 6 6 6 6 7 7 7 7 6 7 7
4 4 4 3 4 4 5 8 8 8 8 8 7 9 11 8 6 8 7 7 7 7
4 4 5 5 5 5 6 6 7 7 7 8 8 10 12 13 8 8 8 8 8 7
6 7 6 5 6 5 4 7 5 6 7 7 7 11 13 14 10 9 10 10 10 10
4 4 4 6 5 5 5 5 6 4 5 6 6 9 11 8 7 9 11 9 10 10
4 3 2 2 3 2 4 5 4 6 7 8 6 3 3 5 5 8 6 7 9 13
4 4 4 3 2 3 3 3 5 6 5 6 5 4 5 8 4 5 5 5 7 7
Wind_Direction
193 203 201 204 190 199 209 228 200 201 214 219 202 193 196 214 230 235 232 235 221 283
198 194 208 211 200 198 201 210 207 206 221 224 226 198 193 202 224 231 237 238 222 246
204 200 208 187 217 229 227 220 206 209 226 222 224 215 190 200 212 219 250 221 221 233
205 207 200 201 214 214 219 232 226 207 198 218 227 219 206 218 218 212 246 250 242 243
206 198 211 215 207 206 208 211 228 237 220 203 208 206 207 224 226 213 224 235 242 262
214 204 205 214 213 207 208 213 220 218 236 237 217 204 205 216 228 238 232 232 227 253
202 208 193 200 211 209 209 214 214 210 221 229 236 223 203 211 223 242 239 229 225 234
194 213 224 204 225 230 211 221 217 210 206 222 216 231 219 217 217 226 238 236 240 239
209 209 238 234 226 241 244 229 220 211 208 203 229 224 216 221 227 230 228 241 245 244
211 225 242 233 217 222 229 231 216 214 200 214 226 228 222 216 230 233 231 230 235 243
200 218 219 222 228 222 210 219 216 216 212 209 218 218 227 228 227 228 231 231 232 231
201 228 223 217 217 221 224 221 220 203 212 227 236 222 234 227 227 237 235 232 231 233
77 69 17 357 344 242 210 219 223 231 214 214 229 207 205 199 227 239 236 237 240 222
71 69 53 42 31 360 340 282 222 213 199 188 194 182 189 178 193 237 257 253 258 248